Weather History for Bradshaw AFB, HI

Change the Weather History Date:

Tuesday, October 15, 2013

  Actual Average Record
Temperature  
Mean Temperature 59 °F -  
Max Temperature 68 °F 69 °F 80 °F (1973)
Min Temperature 50 °F 49 °F 36 °F (1973)
Degree Days  
Heating Degree Days 6    
Growing Degree Days 9 (Base 50)    
Moisture  
Dew Point 53 °F    
Average Humidity 84    
Maximum Humidity 100    
Minimum Humidity 46    
Precipitation  
Precipitation 0.01 in - - ()
Sea Level Pressure  
Sea Level Pressure 30.28 in    
Wind  
Wind Speed 5 mph (WSW)    
Max Wind Speed 17 mph    
Max Gust Speed 24 mph    
Visibility 10 miles    
Events Fog , Rain    
Averages and records for this station are not official NWS values.
T = Trace of Precipitation, MM = Missing Value Source: NWS Daily Summary

Daily Weather History Graph

Daily Weather History Graph

Search for Another Location

Airport:

Trip Planner

Search our weather history database for the weather conditions in past years. The results will help you decide how hot, cold, wet, or windy it might be!

Date:

Astronomy

Oct. 15, 2013 Rise Set
Actual Time 6:16 AM HST 5:58 PM HST
Civil Twilight 5:54 AM HST 6:20 PM HST
Nautical Twilight 5:29 AM HST 6:46 PM HST
Astronomical Twilight 5:03 AM HST 7:11 PM HST
Moon 3:50 PM HST (10/15) 3:15 AM HST (10/15)
Length of Visible Light 12h 25m
Length of Day
11h 41m
Waxing Gibbous, 89% of the Moon is Illuminated
Oct 15
Waxing Gibbous
Oct 18
Full
Oct 26
Last Quarter
Nov 3
New
Nov 9
First Quarter

Hourly Weather History & Observations

Time (HST) Temp. Dew Point Humidity Pressure Visibility Wind Dir Wind Speed Gust Speed Precip Events Conditions
12:56 AM 55.4 °F 47.8 °F 76% 30.29 in 12.0 mi SSW 1.2 mph - N/A   Mostly Cloudy
1:56 AM 54.3 °F 48.0 °F 79% 30.26 in 12.0 mi SE 2.3 mph - N/A   Mostly Cloudy
2:56 AM 52.3 °F 45.0 °F 76% 30.26 in 12.0 mi ESE 3.5 mph - N/A   Partly Cloudy
3:56 AM 52.3 °F 45.3 °F 77% 30.25 in 12.0 mi East 3.5 mph - N/A   Mostly Cloudy
4:56 AM 51.4 °F 46.4 °F 83% 30.26 in 12.0 mi NW 2.3 mph - N/A   Mostly Cloudy
5:56 AM 51.1 °F 46.8 °F 85% 30.27 in 12.0 mi North 2.3 mph - N/A   Scattered Clouds
6:56 AM 50.9 °F 45.9 °F 83% 30.29 in 12.0 mi ESE 2.3 mph - N/A   Scattered Clouds
7:56 AM 55.8 °F 50.4 °F 82% 30.31 in 12.0 mi SE 5.8 mph - N/A   Scattered Clouds
8:56 AM 62.8 °F 47.8 °F 58% 30.31 in 12.0 mi SE 1.2 mph - N/A   Partly Cloudy
9:56 AM 65.8 °F 44.6 °F 46% 30.30 in 12.0 mi SW 5.8 mph - N/A   Clear
10:56 AM 67.5 °F 50.0 °F 53% 30.29 in 8.0 mi West 8.1 mph 17.3 mph N/A   Partly Cloudy
11:56 AM 68.0 °F 54.3 °F 62% 30.26 in 12.0 mi West 17.3 mph 24.2 mph N/A   Scattered Clouds
12:56 PM 62.8 °F 55.8 °F 78% 30.24 in 12.0 mi West 12.7 mph 19.6 mph N/A   Mostly Cloudy
1:16 PM 64.4 °F 57.2 °F 77% 30.24 in 12.0 mi WSW 13.8 mph 19.6 mph N/A   Mostly Cloudy
1:21 PM 64.4 °F 57.2 °F 77% 30.24 in 12.0 mi WSW 8.1 mph 19.6 mph N/A   Mostly Cloudy
1:26 PM 64.4 °F 55.4 °F 73% 30.24 in 12.0 mi WSW 8.1 mph 17.3 mph N/A   Mostly Cloudy
1:41 PM 62.6 °F 53.6 °F 72% 30.24 in 12.0 mi South 9.2 mph 18.4 mph N/A Rain Light Rain
1:46 PM 62.6 °F 53.6 °F 72% 30.24 in 12.0 mi South 8.1 mph 18.4 mph N/A Rain Light Rain
1:51 PM 60.8 °F 53.6 °F 77% 30.24 in 12.0 mi South 6.9 mph - N/A Rain Light Rain
1:56 PM 60.8 °F 52.3 °F 74% 30.24 in 12.0 mi SSW 6.9 mph - 0.00 in Rain Light Rain Showers
2:51 PM 59.0 °F 53.6 °F 82% 30.24 in 6.0 mi West 5.8 mph - N/A Rain Light Rain Showers
2:56 PM 59.7 °F 54.0 °F 81% 30.24 in 8.0 mi West 5.8 mph - 0.01 in Rain Light Rain Showers
3:08 PM 60.8 °F 55.4 °F 82% 30.24 in 10.0 mi SW 4.6 mph - N/A   Mostly Cloudy
3:16 PM 60.8 °F 55.4 °F 82% 30.24 in 12.0 mi SSW 9.2 mph - N/A Rain Light Rain Showers
3:31 PM 59.0 °F 55.4 °F 88% 30.24 in 11.0 mi SE 9.2 mph - N/A Rain Light Rain Showers
3:51 PM 60.8 °F 53.6 °F 77% 30.24 in 12.0 mi SE 9.2 mph - N/A   Mostly Cloudy
3:56 PM 61.3 °F 54.3 °F 78% 30.24 in 12.0 mi SE 8.1 mph - N/A   Mostly Cloudy
4:56 PM 61.0 °F 56.3 °F 85% 30.25 in 12.0 mi WSW 8.1 mph - N/A   Scattered Clouds
5:31 PM 59.0 °F 55.4 °F 88% 30.27 in 12.0 mi WSW 8.1 mph - N/A   Mostly Cloudy
5:36 PM 57.2 °F 55.4 °F 94% 30.28 in 12.0 mi WSW 6.9 mph - N/A   Mostly Cloudy
5:41 PM 57.2 °F 55.4 °F 94% 30.28 in 12.0 mi WSW 5.8 mph - N/A   Mostly Cloudy
5:56 PM 57.4 °F 55.0 °F 92% 30.29 in 12.0 mi WSW 5.8 mph - N/A   Mostly Cloudy
6:06 PM 57.2 °F 55.4 °F 94% 30.29 in 12.0 mi West 5.8 mph - N/A   Mostly Cloudy
6:11 PM 57.2 °F 55.4 °F 94% 30.29 in 12.0 mi West 4.6 mph - N/A   Mostly Cloudy
6:16 PM 57.2 °F 55.4 °F 94% 30.29 in 12.0 mi WSW 3.5 mph - N/A   Mostly Cloudy
6:31 PM 57.2 °F 55.4 °F 94% 30.29 in 11.0 mi West 3.5 mph - N/A   Overcast
6:46 PM 57.2 °F 55.4 °F 94% 30.29 in 11.0 mi WSW 1.2 mph - N/A   Overcast
6:56 PM 56.5 °F 54.7 °F 94% 30.29 in 11.0 mi WSW 1.2 mph - N/A   Mostly Cloudy
7:01 PM 57.2 °F 55.4 °F 94% 30.29 in 12.0 mi NW 2.3 mph - N/A   Mostly Cloudy
7:06 PM 57.2 °F 55.4 °F 94% 30.29 in 12.0 mi NW 2.3 mph - N/A   Mostly Cloudy
7:16 PM 57.2 °F 55.4 °F 94% 30.29 in 12.0 mi NNW 1.2 mph - N/A   Mostly Cloudy
7:21 PM 57.2 °F 55.4 °F 94% 30.29 in 12.0 mi NW 1.2 mph - N/A   Mostly Cloudy
7:41 PM 57.2 °F 53.6 °F 88% 30.30 in 12.0 mi WNW 1.2 mph - N/A   Scattered Clouds
7:56 PM 55.6 °F 53.1 °F 91% 30.30 in 12.0 mi West 1.2 mph - N/A   Partly Cloudy
8:56 PM 53.1 °F 50.7 °F 92% 30.33 in 10.0 mi NNE 2.3 mph - N/A   Partly Cloudy
9:01 PM 53.6 °F 51.8 °F 94% 30.33 in 0.8 mi West 2.3 mph - N/A   Partly Cloudy
9:05 PM 53.6 °F 51.8 °F 94% 30.33 in 0.2 mi West 3.5 mph - N/A Fog , Rain Light Rain Showers
9:10 PM 53.6 °F 53.6 °F 100% 30.33 in 0.1 mi West 3.5 mph - N/A Fog , Rain Light Rain Showers
9:33 PM 53.6 °F 53.6 °F 100% 30.33 in 0.2 mi Calm Calm - N/A Fog Fog
9:43 PM 53.6 °F 53.6 °F 100% 30.33 in 2.2 mi Calm Calm - N/A   Mostly Cloudy
9:48 PM 53.6 °F 53.6 °F 100% 30.33 in 6.0 mi West 1.2 mph - N/A   Mostly Cloudy
9:56 PM 53.6 °F 53.1 °F 98% 30.32 in 10.0 mi West 1.2 mph - 0.00 in   Mostly Cloudy
10:11 PM 53.6 °F 51.8 °F 94% 30.32 in 12.0 mi SSW 1.2 mph - N/A   Scattered Clouds
10:56 PM 51.3 °F 46.0 °F 82% 30.32 in 12.0 mi North 3.5 mph - N/A   Clear
11:56 PM 51.3 °F 46.6 °F 84% 30.30 in 12.0 mi West 2.3 mph - N/A   Clear